DW9007 Weather Reports


time (UTC)temp
F
wind
direction
speed
knots
gust
knots
rain 1hr
in
rain 24hr
in
rain mn
in
humidity
%
barometer
mb
20260504214558 77 254 0.0 4.3 0.00 0.00 0.00 40 1012.5
20260504213037 78 228 0.0 6.1 0.00 0.00 0.00 43 1012.6
20260504211538 78 346 0.0 3.5 0.00 0.00 0.00 42 1012.7
20260504210017 78 63 0.0 6.1 0.00 0.00 0.00 43 1012.7
20260504204514 78 236 0.0 1.7 0.00 0.00 0.00 46 1012.8
20260504203107 77 217 0.0 5.2 0.00 0.00 0.00 44 1012.9
20260504201555 77 188 0.9 8.7 0.00 0.00 0.00 45 1013.1
20260504200035 76 241 0.0 4.3 0.00 0.00 0.00 47 1013.3
20260504194535 77 208 0.0 0.9 0.00 0.00 0.00 45 1013.6
20260504193017 76 201 0.0 4.3 0.00 0.00 0.00 49 1013.6
20260504191522 76 71 0.0 4.3 0.00 0.00 0.00 48 1013.9
20260504190121 76 209 0.0 4.3 0.00 0.00 0.00 49 1014.0
20260504184551 76 295 0.0 3.5 0.00 0.00 0.00 49 1014.0
20260504183032 76 294 0.0 6.1 0.00 0.00 0.00 50 1014.5
20260504181527 75 267 0.0 2.6 0.00 0.00 0.00 53 1014.7
20260504180007 75 235 0.0 2.6 0.00 0.00 0.00 51 1014.8
20260504174503 74 309 0.0 4.3 0.00 0.00 0.00 54 1015.1
20260504173044 74 201 0.0 6.1 0.00 0.00 0.00 55 1015.1
20260504171540 73 221 0.0 7.0 0.00 0.00 0.00 55 1015.4
20260504081554 48 248 0.0 0.0 0.00 0.00 0.00 89 1016.0
20260504044532 50 248 0.0 0.0 0.00 0.00 0.00 81 1017.4
20260504043009 51 248 0.0 0.0 0.00 0.00 0.00 80 1017.4
20260504041507 51 248 0.0 0.0 0.00 0.00 0.00 79 1017.6
20260504040047 51 248 0.0 0.0 0.00 0.00 0.00 78 1017.6
20260504034545 52 248 0.0 0.0 0.00 0.00 0.00 77 1017.8
20260504033028 52 248 0.0 0.0 0.00 0.00 0.00 77 1018.0
20260504031528 53 248 0.0 0.0 0.00 0.00 0.00 76 1018.0
20260504030116 53 248 0.0 0.0 0.00 0.00 0.00 75 1018.0
20260504024505 54 248 0.0 0.0 0.00 0.00 0.00 75 1017.8
20260504023043 54 248 0.0 0.0 0.00 0.00 0.00 74 1017.6
20260504021540 55 248 0.0 0.0 0.00 0.00 0.00 71 1017.5
20260504020020 56 248 0.0 0.0 0.00 0.00 0.00 70 1017.4
20260504014533 57 248 0.0 0.0 0.00 0.00 0.00 68 1017.3
20260504013114 58 248 0.0 0.0 0.00 0.00 0.00 67 1017.2
20260504011552 59 248 0.0 0.0 0.00 0.00 0.00 64 1017.1
20260504010110 60 248 0.0 0.0 0.00 0.00 0.00 61 1017.1
20260504004527 62 248 0.0 0.0 0.00 0.00 0.00 59 1016.8
20260504003023 64 248 0.0 0.0 0.00 0.00 0.00 56 1016.6
20260504001501 65 298 0.0 0.0 0.00 0.00 0.00 53 1016.7
20260504000100 66 298 0.0 0.0 0.00 0.00 0.00 49 1016.7
20260503234539 68 299 0.0 0.0 0.00 0.00 0.00 46 1016.7
20260503233042 68 299 0.0 0.0 0.00 0.00 0.00 41 1016.7
20260503231521 70 300 0.0 0.0 0.00 0.00 0.00 39 1016.6
20260503230020 70 304 0.0 0.9 0.00 0.00 0.00 39 1016.7
20260503224502 69 326 0.0 0.0 0.00 0.00 0.00 39 1016.8
20260503223100 70 335 0.0 2.6 0.00 0.00 0.00 38 1016.9
20260503221548 70 331 0.0 0.0 0.00 0.00 0.00 39 1017.0
20260503220039 70 279 0.0 0.0 0.00 0.00 0.00 41 1017.1